Flag for U.S.A. Weather past 2 weeks in West Covina, California, U.S.A.

Now
64 °F

Sunny.


Feels Like: 64 °F
Forecast: 51 / 70 °F
Wind: No wind

Location: Fullerton Municipal Airport

Current Time: Jan 31, 2015 at 11:39:39 AM

Latest Report: Jan 31, 2015 at 10:53 AM


Visibility: 10 mi

Pressure: 29.91 "Hg

Humidity: 65%

Dew point: 52 °F

Location of West CovinaLocation

Historic Weather in West Covina — Graph

°F

West Covina temperature yesterday

Maximum temperature yesterday: 70 °F (at 12:53 PM)
Minimum temperature yesterday: 59 °F (at 5:53 AM)
Average temperature yesterday: 64 °F

Past Weeks' High & Low Weather Summary

 TemperatureHumidityPressure
High84 °F (Jan 24, 2:53 PM)93% (Jan 20, 2:53 AM)30.24 "Hg (Jan 20, 2:53 AM)
Low46 °F (Jan 23, 6:53 AM)9% (Jan 23, 2:53 PM)29.82 "Hg (Jan 31, 3:53 AM)
Average63 °F52%30.06 "Hg
* Reported Jan 16 9:53 AM — Jan 31 9:53 AM, West Covina, Weather by CustomWeather, © 2014

Note: Actual official high and low records may vary slightly from our data, if they occured in-between our weather recording intervals... More about our weather records

Advertising

West Covina weather history for previous 24 hours

 ConditionsComfort  
Time TempWeatherWind HumidityBarometerVisibility
9:53 AM
Jan 31
62 °FPartly sunny.No wind73%29.91 "Hg10 mi
8:53 AM62 °FSunny.No wind70%29.90 "Hg10 mi
7:53 AM58 °FPassing clouds.3 mph81%29.87 "Hg10 mi
6:53 AM58 °FOvercast.3 mph81%29.86 "Hg10 mi
5:53 AM58 °FPassing clouds.No wind81%29.85 "Hg10 mi
4:53 AM58 °FPassing clouds.3 mph84%29.82 "Hg10 mi
3:53 AM59 °FPassing clouds.5 mph81%29.82 "Hg10 mi
2:53 AM59 °FClear.3 mph84%29.84 "Hg10 mi
2:02 AM60 °FMostly cloudy.No wind83%29.85 "Hg10 mi
1:53 AM60 °FMostly cloudy.3 mph83%29.85 "Hg10 mi
12:53 AM60 °FMostly cloudy.5 mph86%29.85 "Hg9 mi
11:53 PM
Jan 30
61 °FPassing clouds.3 mph83%29.86 "Hg9 mi
10:53 PM60 °FPassing clouds.5 mph86%29.87 "Hg9 mi
9:53 PM61 °FPassing clouds.5 mph83%29.86 "Hg10 mi
8:53 PM62 °FClear.3 mph80%29.85 "Hg10 mi
7:53 PM62 °FClear.5 mph80%29.85 "Hg10 mi
6:53 PM63 °FPassing clouds.5 mph70%29.85 "Hg10 mi
5:53 PM65 °FPassing clouds.5 mph61%29.83 "Hg10 mi
4:53 PM67 °FPartly sunny.No wind53%29.83 "Hg10 mi
3:53 PM68 °FOvercast.7 mph47%29.83 "Hg10 mi
2:53 PM68 °FPassing clouds.5 mph47%29.83 "Hg10 mi
1:53 PM69 °FOvercast.6 mph42%29.83 "Hg10 mi
12:53 PM70 °FPassing clouds.No wind42%29.85 "Hg10 mi
11:53 AM69 °FPartly sunny.3 mph45%29.88 "Hg10 mi
Weather by CustomWeather, © 2014

See weather overviewHow to use our weather pages